Time,TemperatureF,DewpointF,PressureIn,WindDirection,WindDirectionDegrees,WindSpeedMPH,WindSpeedGustMPH,Humidity,HourlyPrecipIn,Conditions,Clouds,dailyrainin,SoftwareType,DateUTC
2013-01-30 00:03:00,18.6,10.1,29.92,SW,229,0.0,0.0,69,0.00,-RA,OVC,0.00,WeatherDisplay:10.37,2013-01-30 07:03:00,
2013-01-30 00:08:00,18.2,10.1,29.92,SW,229,0.0,0.0,70,0.00,-RA,OVC,0.00,WeatherDisplay:10.37,2013-01-30 07:08:00,
2013-01-30 00:13:00,17.7,9.6,29.92,SW,229,0.0,0.0,70,0.00,-RA,OVC,0.00,WeatherDisplay:10.37,2013-01-30 07:13:00,
2013-01-30 00:18:00,17.3,9.8,29.92,SW,229,0.0,0.0,72,0.00,-RA,OVC,0.00,WeatherDisplay:10.37,2013-01-30 07:18:00,
2013-01-30 00:23:00,17.1,9.6,29.92,SW,229,0.0,0.0,72,0.00,-RA,OVC,0.00,WeatherDisplay:10.37,2013-01-30 07:23:00,
2013-01-30 00:28:00,16.8,9.6,29.92,SW,229,0.0,0.0,73,0.00,-RA,OVC,0.00,WeatherDisplay:10.37,2013-01-30 07:28:00,
2013-01-30 00:33:00,16.4,9.3,29.92,SW,229,0.0,0.0,73,0.00,-RA,OVC,0.00,WeatherDisplay:10.37,2013-01-30 07:33:00,
2013-01-30 00:38:00,16.1,9.3,29.92,SW,229,0.0,0.0,74,0.00,-RA,OVC,0.00,WeatherDisplay:10.37,2013-01-30 07:38:00,
2013-01-30 00:43:00,15.8,9.0,29.92,SW,229,0.0,0.0,74,0.00,-RA,OVC,0.00,WeatherDisplay:10.37,2013-01-30 07:43:00,
2013-01-30 00:48:00,15.4,8.9,29.92,SW,229,0.0,0.0,75,0.00,-RA,OVC,0.00,WeatherDisplay:10.37,2013-01-30 07:48:00,
2013-01-30 00:53:00,15.1,8.6,29.92,SW,229,0.0,0.0,75,0.00,-RA,OVC,0.00,WeatherDisplay:10.37,2013-01-30 07:53:00,
2013-01-30 00:58:00,14.9,8.7,29.92,SW,229,0.0,0.0,76,0.00,-RA,OVC,0.00,WeatherDisplay:10.37,2013-01-30 07:58:00,
2013-01-30 01:03:00,14.7,8.5,29.92,SW,229,0.0,0.0,76,0.00,-RA,OVC,0.00,WeatherDisplay:10.37,2013-01-30 08:03:00,
2013-01-30 01:08:00,14.5,8.6,29.92,SW,229,0.0,0.0,77,0.00,-RA,OVC,0.00,WeatherDisplay:10.37,2013-01-30 08:08:00,
2013-01-30 01:14:00,14.5,8.6,29.92,SW,229,0.0,0.0,77,0.00,-RA,OVC,0.00,WeatherDisplay:10.37,2013-01-30 08:14:00,
2013-01-30 01:19:00,14.4,8.5,29.92,SW,229,0.0,0.0,77,0.00,-RA,OVC,0.00,WeatherDisplay:10.37,2013-01-30 08:19:00,
2013-01-30 01:24:00,14.5,8.6,29.92,SW,229,1.1,1.1,77,0.00,-RA,OVC,0.00,WeatherDisplay:10.37,2013-01-30 08:24:00,
2013-01-30 01:29:00,14.6,8.7,29.92,SW,229,2.3,2.3,77,0.00,-RA,OVC,0.00,WeatherDisplay:10.37,2013-01-30 08:29:00,
2013-01-30 01:34:00,14.7,8.5,29.92,SW,229,0.0,0.0,76,0.00,-RA,OVC,0.00,WeatherDisplay:10.37,2013-01-30 08:34:00,
2013-01-30 01:39:00,14.9,8.7,29.92,SW,229,2.3,2.3,76,0.00,-RA,OVC,0.00,WeatherDisplay:10.37,2013-01-30 08:39:00,
2013-01-30 01:44:00,15.1,8.9,29.92,SW,229,0.0,0.0,76,0.00,-RA,OVC,0.00,WeatherDisplay:10.37,2013-01-30 08:44:00,
2013-01-30 01:49:00,15.3,9.1,29.92,SW,232,2.3,2.3,76,0.00,-RA,OVC,0.00,WeatherDisplay:10.37,2013-01-30 08:49:00,
2013-01-30 01:54:00,15.6,9.4,29.92,NW,324,3.5,3.5,76,0.00,-RA,OVC,0.00,WeatherDisplay:10.37,2013-01-30 08:54:00,
2013-01-30 01:59:00,15.8,9.3,29.92,NW,324,0.0,0.0,75,0.00,-RA,OVC,0.00,WeatherDisplay:10.37,2013-01-30 08:59:00,
2013-01-30 02:04:00,15.9,9.1,29.92,NW,324,1.1,1.1,74,0.00,-RA,OVC,0.00,WeatherDisplay:10.37,2013-01-30 09:04:00,
2013-01-30 02:09:00,15.9,9.1,29.92,NW,325,0.0,0.0,74,0.00,-RA,OVC,0.00,WeatherDisplay:10.37,2013-01-30 09:09:00,
2013-01-30 02:14:00,15.8,8.7,29.92,NNW,329,3.5,3.5,73,0.00,-RA,OVC,0.00,WeatherDisplay:10.37,2013-01-30 09:14:00,
2013-01-30 02:19:00,15.8,8.7,29.92,NNW,332,3.5,3.5,73,0.00,-RA,OVC,0.00,WeatherDisplay:10.37,2013-01-30 09:19:00,
2013-01-30 02:24:00,15.8,8.7,29.92,NNW,332,1.1,1.1,73,0.00,-RA,OVC,0.00,WeatherDisplay:10.37,2013-01-30 09:24:00,
2013-01-30 02:29:00,15.8,8.4,29.92,NNW,333,0.0,0.0,72,0.00,-RA,OVC,0.00,WeatherDisplay:10.37,2013-01-30 09:29:00,
2013-01-30 02:34:00,15.7,8.0,29.92,NNW,333,2.3,2.3,71,0.00,-RA,OVC,0.00,WeatherDisplay:10.37,2013-01-30 09:34:00,
2013-01-30 02:39:00,15.5,7.5,29.92,NNW,333,0.0,0.0,70,0.00,-RA,OVC,0.00,WeatherDisplay:10.37,2013-01-30 09:39:00,
2013-01-30 02:44:00,15.3,7.3,29.92,NNW,333,0.0,0.0,70,0.00,-RA,OVC,0.00,WeatherDisplay:10.37,2013-01-30 09:44:00,
2013-01-30 02:49:00,15.1,6.8,29.92,NNW,333,1.1,1.1,69,0.00,-RA,OVC,0.00,WeatherDisplay:10.37,2013-01-30 09:49:00,
2013-01-30 02:54:00,15.0,7.0,29.92,NNW,333,1.1,1.1,70,0.00,-RA,OVC,0.00,WeatherDisplay:10.37,2013-01-30 09:54:00,
2013-01-30 02:59:00,14.9,6.2,29.92,NNW,333,2.3,2.3,68,0.00,-RA,OVC,0.00,WeatherDisplay:10.37,2013-01-30 09:59:00,
2013-01-30 03:04:00,15.0,5.7,29.92,ESE,117,5.8,5.8,66,0.00,-RA,OVC,0.00,WeatherDisplay:10.37,2013-01-30 10:04:00,
2013-01-30 03:09:00,17.5,5.2,29.92,ESE,121,17.3,17.3,58,0.00,-RA,OVC,0.00,WeatherDisplay:10.37,2013-01-30 10:09:00,
2013-01-30 03:14:00,19.8,5.4,29.89,ESE,116,6.0,6.0,53,0.00,-RA,OVC,0.00,WeatherDisplay:10.37,2013-01-30 10:14:00,
2013-01-30 03:19:00,20.7,5.4,29.89,SE,124,10.4,10.4,51,0.00,-RA,OVC,0.00,WeatherDisplay:10.37,2013-01-30 10:19:00,
2013-01-30 03:24:00,21.2,5.0,29.89,SE,140,5.8,5.8,49,0.00,-RA,OVC,0.00,WeatherDisplay:10.37,2013-01-30 10:24:00,
2013-01-30 03:29:00,21.3,4.6,29.89,SSE,147,5.8,5.8,48,0.00,-RA,OVC,0.00,WeatherDisplay:10.37,2013-01-30 10:29:00,
2013-01-30 03:34:00,21.3,5.1,29.89,South,170,6.9,6.9,49,0.00,-RA,OVC,0.00,WeatherDisplay:10.37,2013-01-30 10:34:00,
2013-01-30 03:39:00,21.2,5.0,29.89,South,187,6.9,6.9,49,0.00,-RA,OVC,0.00,WeatherDisplay:10.37,2013-01-30 10:39:00,
2013-01-30 03:44:00,21.1,4.9,29.89,East,92,3.5,3.5,49,0.00,-RA,OVC,0.00,WeatherDisplay:10.37,2013-01-30 10:44:00,
2013-01-30 03:49:00,21.0,5.2,29.89,ESE,115,6.9,6.9,50,0.00,-RA,OVC,0.00,WeatherDisplay:10.37,2013-01-30 10:49:00,
2013-01-30 03:54:00,21.1,5.8,29.89,ESE,119,3.5,3.5,51,0.00,-RA,OVC,0.00,WeatherDisplay:10.37,2013-01-30 10:54:00,
2013-01-30 03:59:00,20.8,5.1,29.89,ESE,117,3.5,3.5,50,0.00,-RA,OVC,0.00,WeatherDisplay:10.37,2013-01-30 10:59:00,
2013-01-30 04:04:00,20.4,5.1,29.89,ESE,118,3.5,3.5,51,0.00,-RA,OVC,0.00,WeatherDisplay:10.37,2013-01-30 11:04:00,
2013-01-30 04:09:00,20.2,4.9,29.89,ESE,122,3.5,3.5,51,0.00,-RA,OVC,0.00,WeatherDisplay:10.37,2013-01-30 11:09:00,
2013-01-30 04:14:00,20.1,4.8,29.89,ESE,122,2.3,2.3,51,0.00,-RA,OVC,0.00,WeatherDisplay:10.37,2013-01-30 11:14:00,
2013-01-30 04:19:00,19.9,5.1,29.89,ESE,122,4.6,4.6,52,0.00,-RA,OVC,0.00,WeatherDisplay:10.37,2013-01-30 11:19:00,
2013-01-30 04:24:00,19.8,5.0,29.88,ESE,122,0.0,0.0,52,0.00,-RA,OVC,0.00,WeatherDisplay:10.37,2013-01-30 11:24:00,
2013-01-30 04:29:00,19.5,4.7,29.88,ESE,122,1.1,1.1,52,0.00,-RA,OVC,0.00,WeatherDisplay:10.37,2013-01-30 11:29:00,
2013-01-30 04:34:00,19.2,4.8,29.88,ESE,122,0.0,0.0,53,0.00,-RA,OVC,0.00,WeatherDisplay:10.37,2013-01-30 11:34:00,
2013-01-30 04:39:00,19.2,4.8,29.88,ESE,121,0.0,0.0,53,0.00,-RA,OVC,0.00,WeatherDisplay:10.37,2013-01-30 11:39:00,
2013-01-30 04:44:00,19.0,4.7,29.88,ESE,121,0.0,0.0,53,0.00,-RA,OVC,0.00,WeatherDisplay:10.37,2013-01-30 11:44:00,
2013-01-30 04:49:00,18.6,4.7,29.88,ESE,121,0.0,0.0,54,0.00,-RA,OVC,0.00,WeatherDisplay:10.37,2013-01-30 11:49:00,
2013-01-30 04:54:00,18.2,4.7,29.88,ESE,121,0.0,0.0,55,0.00,-RA,OVC,0.00,WeatherDisplay:10.37,2013-01-30 11:54:00,
2013-01-30 04:59:00,17.8,4.7,29.88,ESE,121,0.0,0.0,56,0.00,-RA,OVC,0.00,WeatherDisplay:10.37,2013-01-30 11:59:00,
2013-01-30 05:04:00,17.2,4.6,29.88,ESE,121,0.0,0.0,57,0.00,-RA,OVC,0.00,WeatherDisplay:10.37,2013-01-30 12:04:00,
2013-01-30 05:09:00,16.6,4.4,29.88,ESE,122,2.3,2.3,58,0.00,-RA,OVC,0.00,WeatherDisplay:10.37,2013-01-30 12:09:00,
2013-01-30 05:14:00,16.3,4.1,29.88,ESE,123,3.5,3.5,58,0.00,-RA,OVC,0.00,WeatherDisplay:10.37,2013-01-30 12:14:00,
2013-01-30 05:19:00,17.5,2.8,29.88,SE,144,2.3,2.3,52,0.00,-RA,OVC,0.00,WeatherDisplay:10.37,2013-01-30 12:19:00,
2013-01-30 05:24:00,18.9,2.4,29.88,SE,140,3.5,3.5,48,0.00,-RA,OVC,0.00,WeatherDisplay:10.37,2013-01-30 12:24:00,
2013-01-30 05:29:00,19.6,2.1,29.88,SSE,160,3.5,3.5,46,0.00,-RA,OVC,0.00,WeatherDisplay:10.37,2013-01-30 12:29:00,
2013-01-30 05:34:00,20.0,2.0,29.88,SSE,160,3.5,3.5,45,0.00,-RA,OVC,0.00,WeatherDisplay:10.37,2013-01-30 12:34:00,
2013-01-30 05:39:00,20.6,1.6,29.88,SSE,157,3.5,3.5,43,0.00,-RA,OVC,0.00,WeatherDisplay:10.37,2013-01-30 12:39:00,
2013-01-30 05:44:00,21.2,1.6,29.88,SE,140,3.5,3.5,42,0.00,-RA,OVC,0.00,WeatherDisplay:10.37,2013-01-30 12:44:00,
2013-01-30 05:49:00,21.9,1.2,29.88,SE,139,16.1,16.1,40,0.00,-RA,OVC,0.00,WeatherDisplay:10.37,2013-01-30 12:49:00,
2013-01-30 05:54:00,23.0,1.7,29.87,SE,126,10.4,10.4,39,0.00,-RA,OVC,0.00,WeatherDisplay:10.37,2013-01-30 12:54:00,
2013-01-30 05:59:00,23.5,1.6,29.87,ESE,120,6.9,6.9,38,0.00,-RA,OVC,0.00,WeatherDisplay:10.37,2013-01-30 12:59:00,
2013-01-30 06:04:00,23.8,1.8,29.87,SE,136,12.7,12.7,38,0.00,-RA,OVC,0.00,WeatherDisplay:10.37,2013-01-30 13:04:00,
2013-01-30 06:09:00,23.8,1.8,29.87,ESE,123,10.4,10.4,38,0.00,-RA,OVC,0.00,WeatherDisplay:10.37,2013-01-30 13:09:00,
2013-01-30 06:14:00,23.9,1.9,29.86,ESE,115,10.4,10.4,38,0.00,-RA,OVC,0.00,WeatherDisplay:10.37,2013-01-30 13:14:00,
2013-01-30 06:19:00,23.8,4.5,29.86,East,97,4.6,4.6,43,0.00,-RA,OVC,0.00,WeatherDisplay:10.37,2013-01-30 13:19:00,
2013-01-30 06:24:00,22.5,4.3,29.86,NE,56,3.5,3.5,45,0.00,-RA,OVC,0.00,WeatherDisplay:10.37,2013-01-30 13:24:00,
2013-01-30 06:29:00,21.0,4.4,29.86,NE,53,2.3,2.3,48,0.00,-RA,OVC,0.00,WeatherDisplay:10.37,2013-01-30 13:29:00,
2013-01-30 06:34:00,19.6,4.4,29.85,NE,52,3.5,3.5,51,0.00,-RA,OVC,0.00,WeatherDisplay:10.37,2013-01-30 13:34:00,
2013-01-30 06:39:00,18.2,4.3,29.85,NE,51,3.5,3.5,54,0.00,-RA,OVC,0.00,WeatherDisplay:10.37,2013-01-30 13:39:00,
2013-01-30 06:44:00,17.4,4.7,29.85,NE,51,3.5,3.5,57,0.00,-RA,OVC,0.00,WeatherDisplay:10.37,2013-01-30 13:44:00,
2013-01-30 06:49:00,16.8,4.6,29.85,NE,35,6.0,6.0,58,0.00,-RA,OVC,0.00,WeatherDisplay:10.37,2013-01-30 13:49:00,
2013-01-30 06:54:00,16.4,4.6,29.85,NNE,22,2.3,2.3,59,0.00,-RA,OVC,0.00,WeatherDisplay:10.37,2013-01-30 13:54:00,
2013-01-30 06:59:00,16.4,4.9,29.85,NNE,22,3.5,3.5,60,0.00,-RA,OVC,0.00,WeatherDisplay:10.37,2013-01-30 13:59:00,
2013-01-30 07:04:00,16.4,5.3,29.85,NNE,22,0.0,0.0,61,0.00,-RA,OVC,0.00,WeatherDisplay:10.37,2013-01-30 14:04:00,
2013-01-30 07:09:00,16.6,5.5,29.85,NNE,22,0.0,0.0,61,0.00,-RA,OVC,0.00,WeatherDisplay:10.37,2013-01-30 14:09:00,
2013-01-30 07:14:00,16.8,5.7,29.85,NNE,22,3.5,3.5,61,0.00,-RA,OVC,0.00,WeatherDisplay:10.37,2013-01-30 14:14:00,
2013-01-30 07:19:00,19.3,4.5,29.85,ESE,120,12.7,12.7,52,0.00,-RA,OVC,0.00,WeatherDisplay:10.37,2013-01-30 14:19:00,
2013-01-30 07:24:00,22.9,4.7,29.85,SE,136,11.5,11.5,45,0.00,-RA,OVC,0.00,WeatherDisplay:10.37,2013-01-30 14:24:00,
2013-01-30 07:29:00,24.9,4.5,29.85,SE,127,18.4,18.4,41,0.00,-RA,OVC,0.00,WeatherDisplay:10.37,2013-01-30 14:29:00,
2013-01-30 07:34:00,25.8,3.6,29.85,SE,134,12.7,12.7,38,0.00,-RA,OVC,0.00,WeatherDisplay:10.37,2013-01-30 14:34:00,
2013-01-30 07:39:00,26.2,4.0,29.85,ESE,118,10.4,10.4,38,0.00,-RA,OVC,0.00,WeatherDisplay:10.37,2013-01-30 14:39:00,
2013-01-30 07:44:00,26.4,3.6,29.85,SE,134,12.7,12.7,37,0.00,-RA,OVC,0.00,WeatherDisplay:10.37,2013-01-30 14:44:00,
2013-01-30 07:49:00,26.5,3.7,29.85,ESE,116,11.5,11.5,37,0.00,-RA,OVC,0.00,WeatherDisplay:10.37,2013-01-30 14:49:00,
2013-01-30 07:54:00,26.6,3.2,29.85,SE,132,10.4,10.4,36,0.00,-RA,OVC,0.00,WeatherDisplay:10.37,2013-01-30 14:54:00,
2013-01-30 07:59:00,26.7,3.3,29.85,ESE,121,12.7,12.7,36,0.00,-RA,OVC,0.00,WeatherDisplay:10.37,2013-01-30 14:59:00,
2013-01-30 08:04:00,26.7,3.3,29.85,SSE,163,6.9,6.9,36,0.00,-RA,OVC,0.00,WeatherDisplay:10.37,2013-01-30 15:04:00,
2013-01-30 08:09:00,26.8,3.4,29.85,SE,128,4.6,4.6,36,0.00,-RA,OVC,0.00,WeatherDisplay:10.37,2013-01-30 15:09:00,
2013-01-30 08:14:00,27.0,3.5,29.85,ESE,123,5.8,5.8,36,0.00,-RA,OVC,0.00,WeatherDisplay:10.37,2013-01-30 15:14:00,
2013-01-30 08:19:00,27.4,3.3,29.85,SE,126,9.2,9.2,35,0.00,-RA,OVC,0.00,WeatherDisplay:10.37,2013-01-30 15:19:00,
2013-01-30 08:24:00,27.8,3.0,29.85,SE,140,12.7,12.7,34,0.00,-RA,OVC,0.00,WeatherDisplay:10.37,2013-01-30 15:24:00,
2013-01-30 08:29:00,28.4,3.6,29.85,ESE,123,11.5,11.5,34,0.00,-RA,OVC,0.00,WeatherDisplay:10.37,2013-01-30 15:29:00,
2013-01-30 08:34:00,28.9,4.0,29.85,East,99,9.2,9.2,34,0.00,-RA,OVC,0.00,WeatherDisplay:10.37,2013-01-30 15:34:00,
2013-01-30 08:39:00,29.5,3.9,29.85,SE,131,13.8,13.8,33,0.00,-RA,OVC,0.00,WeatherDisplay:10.37,2013-01-30 15:39:00,
2013-01-30 08:44:00,30.1,4.4,29.85,East,91,15.0,15.0,33,0.00,-RA,OVC,0.00,WeatherDisplay:10.37,2013-01-30 15:44:00,
2013-01-30 08:49:00,30.4,4.0,29.85,East,96,12.7,12.7,32,0.00,-RA,OVC,0.00,WeatherDisplay:10.37,2013-01-30 15:49:00,
2013-01-30 08:54:00,30.6,4.9,29.85,SSE,167,4.6,4.6,33,0.00,-RA,OVC,0.00,WeatherDisplay:10.37,2013-01-30 15:54:00,
2013-01-30 08:59:00,30.7,4.9,29.85,SE,144,18.4,18.4,33,0.00,-RA,OVC,0.00,WeatherDisplay:10.37,2013-01-30 15:59:00,
2013-01-30 09:04:00,30.8,5.0,29.85,SE,125,3.5,3.5,33,0.00,-RA,OVC,0.00,WeatherDisplay:10.37,2013-01-30 16:04:00,
2013-01-30 09:09:00,30.8,5.7,29.85,SSE,167,18.4,18.4,34,0.00,-RA,OVC,0.00,WeatherDisplay:10.37,2013-01-30 16:09:00,
2013-01-30 09:14:00,31.0,5.9,29.85,SSE,160,11.5,11.5,34,0.00,-RA,OVC,0.00,WeatherDisplay:10.37,2013-01-30 16:14:00,
2013-01-30 09:19:00,31.2,6.7,29.85,SSE,158,3.5,3.5,35,0.00,-RA,OVC,0.00,WeatherDisplay:10.37,2013-01-30 16:19:00,
2013-01-30 09:24:00,31.6,6.4,29.85,South,185,17.3,17.3,34,0.00,-RA,OVC,0.00,WeatherDisplay:10.37,2013-01-30 16:24:00,
2013-01-30 09:29:00,32.3,6.4,29.85,ESE,121,19.6,19.6,33,0.00,-RA,OVC,0.00,WeatherDisplay:10.37,2013-01-30 16:29:00,
2013-01-30 09:34:00,33.1,7.7,29.85,SE,136,13.8,13.8,34,0.00,-RA,OVC,0.00,WeatherDisplay:10.37,2013-01-30 16:34:00,
2013-01-30 09:39:00,33.6,7.5,29.85,SE,125,12.7,12.7,33,0.00,-RA,OVC,0.00,WeatherDisplay:10.37,2013-01-30 16:39:00,
2013-01-30 09:44:00,33.8,7.7,29.85,SE,134,8.1,8.1,33,0.00,-RA,OVC,0.00,WeatherDisplay:10.37,2013-01-30 16:44:00,
2013-01-30 09:49:00,34.1,7.3,29.85,SSW,200,11.5,11.5,32,0.00,-RA,OVC,0.00,WeatherDisplay:10.37,2013-01-30 16:49:00,
2013-01-30 09:54:00,34.5,7.6,29.83,ESE,119,11.5,11.5,32,0.00,-RA,OVC,0.00,WeatherDisplay:10.37,2013-01-30 16:54:00,
2013-01-30 09:59:00,34.8,8.6,29.83,SSE,150,11.5,11.5,33,0.00,-RA,OVC,0.00,WeatherDisplay:10.37,2013-01-30 16:59:00,
2013-01-30 10:04:00,35.3,9.0,29.83,South,182,17.3,17.3,33,0.00,-RA,OVC,0.00,WeatherDisplay:10.37,2013-01-30 17:04:00,
2013-01-30 10:09:00,35.4,7.7,29.83,SE,130,17.3,17.3,31,0.00,-RA,OVC,0.00,WeatherDisplay:10.37,2013-01-30 17:09:00,
2013-01-30 10:14:00,35.0,7.4,29.83,SE,135,17.3,17.3,31,0.00,-RA,OVC,0.00,WeatherDisplay:10.37,2013-01-30 17:14:00,
2013-01-30 10:19:00,34.7,7.8,29.83,ESE,117,12.7,12.7,32,0.00,-RA,OVC,0.00,WeatherDisplay:10.37,2013-01-30 17:19:00,
2013-01-30 10:24:00,34.5,7.6,29.83,SE,130,11.5,11.5,32,0.00,-RA,OVC,0.00,WeatherDisplay:10.37,2013-01-30 17:24:00,
2013-01-30 10:29:00,34.6,7.0,29.83,SE,136,13.8,13.8,31,0.00,-RA,OVC,0.00,WeatherDisplay:10.37,2013-01-30 17:29:00,
2013-01-30 10:34:00,34.8,8.6,29.83,South,169,10.4,10.4,33,0.00,-RA,OVC,0.00,WeatherDisplay:10.37,2013-01-30 17:34:00,
2013-01-30 10:39:00,35.2,8.2,29.83,ESE,116,10.4,10.4,32,0.00,-RA,OVC,0.00,WeatherDisplay:10.37,2013-01-30 17:39:00,
2013-01-30 10:44:00,35.7,8.0,29.83,SE,134,13.8,13.8,31,0.00,-RA,OVC,0.00,WeatherDisplay:10.37,2013-01-30 17:44:00,
2013-01-30 10:49:00,36.2,8.4,29.83,SSE,155,11.5,11.5,31,0.00,-RA,OVC,0.00,WeatherDisplay:10.37,2013-01-30 17:49:00,
2013-01-30 10:54:00,36.4,8.6,29.83,SSW,207,9.2,9.2,31,0.00,-RA,OVC,0.00,WeatherDisplay:10.37,2013-01-30 17:54:00,
2013-01-30 10:59:00,36.5,9.4,29.83,SE,140,16.1,16.1,32,0.00,-RA,OVC,0.00,WeatherDisplay:10.37,2013-01-30 17:59:00,
2013-01-30 11:04:00,36.5,8.7,29.83,ESE,115,6.9,6.9,31,0.00,-RA,OVC,0.00,WeatherDisplay:10.37,2013-01-30 18:04:00,
2013-01-30 11:09:00,36.4,10.0,29.83,South,174,11.5,11.5,33,0.00,-RA,OVC,0.00,WeatherDisplay:10.37,2013-01-30 18:09:00,
2013-01-30 11:14:00,36.5,8.7,29.83,ESE,117,10.4,10.4,31,0.00,-RA,OVC,0.00,WeatherDisplay:10.37,2013-01-30 18:14:00,
2013-01-30 11:19:00,36.5,10.1,29.83,SE,142,10.4,10.4,33,0.00,-RA,OVC,0.00,WeatherDisplay:10.37,2013-01-30 18:19:00,
2013-01-30 11:24:00,36.4,10.7,29.83,SE,126,8.1,8.1,34,0.00,-RA,OVC,0.00,WeatherDisplay:10.37,2013-01-30 18:24:00,
2013-01-30 11:29:00,36.4,10.0,29.83,SE,126,9.2,9.2,33,0.00,-RA,OVC,0.00,WeatherDisplay:10.37,2013-01-30 18:29:00,
2013-01-30 11:34:00,36.4,10.0,29.83,ESE,116,15.0,15.0,33,0.00,-RA,OVC,0.00,WeatherDisplay:10.37,2013-01-30 18:34:00,
2013-01-30 11:39:00,36.7,11.6,29.83,South,183,15.0,15.0,35,0.00,-RA,OVC,0.00,WeatherDisplay:10.37,2013-01-30 18:39:00,
2013-01-30 11:44:00,36.7,12.2,29.83,SE,131,10.4,10.4,36,0.00,-RA,OVC,0.00,WeatherDisplay:10.37,2013-01-30 18:44:00,
2013-01-30 11:49:00,36.2,12.4,29.83,South,185,11.5,11.5,37,0.00,-RA,OVC,0.00,WeatherDisplay:10.37,2013-01-30 18:49:00,
2013-01-30 11:54:00,35.4,12.3,29.83,SSE,159,10.4,10.4,38,0.01,-RA,OVC,0.01,WeatherDisplay:10.37,2013-01-30 18:54:00,
2013-01-30 11:59:00,35.4,12.3,29.83,South,191,13.8,13.8,38,0.01,-RA,OVC,0.01,WeatherDisplay:10.37,2013-01-30 18:59:00,
2013-01-30 12:04:00,36.0,14.0,29.83,SE,146,6.9,6.9,40,0.01,-RA,OVC,0.01,WeatherDisplay:10.37,2013-01-30 19:04:00,
2013-01-30 12:09:00,36.7,13.4,29.83,SE,144,16.1,16.1,38,0.01,-RA,OVC,0.01,WeatherDisplay:10.37,2013-01-30 19:09:00,
2013-01-30 12:14:00,36.4,13.2,29.83,SSW,204,10.4,10.4,38,0.01,-RA,OVC,0.01,WeatherDisplay:10.37,2013-01-30 19:14:00,
2013-01-30 12:19:00,36.1,12.9,29.83,SE,126,19.6,19.6,38,0.01,-RA,OVC,0.01,WeatherDisplay:10.37,2013-01-30 19:19:00,
2013-01-30 12:24:00,36.1,14.1,29.83,SSE,152,19.6,19.6,40,0.01,-RA,OVC,0.01,WeatherDisplay:10.37,2013-01-30 19:24:00,
2013-01-30 12:29:00,35.6,13.6,29.83,South,180,19.6,19.6,40,0.01,-RA,OVC,0.01,WeatherDisplay:10.37,2013-01-30 19:29:00,
2013-01-30 12:34:00,35.5,14.6,29.83,South,174,5.8,5.8,42,0.01,-RA,OVC,0.01,WeatherDisplay:10.37,2013-01-30 19:34:00,
2013-01-30 12:39:00,35.5,14.1,29.83,South,178,6.9,6.9,41,0.01,-RA,OVC,0.01,WeatherDisplay:10.37,2013-01-30 19:39:00,
2013-01-30 12:44:00,35.7,14.3,29.83,SSE,153,15.0,15.0,41,0.01,-RA,OVC,0.01,WeatherDisplay:10.37,2013-01-30 19:44:00,
2013-01-30 12:49:00,36.1,14.6,29.83,South,189,5.8,5.8,41,0.01,-RA,OVC,0.01,WeatherDisplay:10.37,2013-01-30 19:49:00,
2013-01-30 12:54:00,36.2,14.7,29.82,SSE,163,6.9,6.9,41,0.00,-RA,OVC,0.01,WeatherDisplay:10.37,2013-01-30 19:54:00,
2013-01-30 12:59:00,36.3,14.3,29.82,South,185,12.7,12.7,40,0.00,-RA,OVC,0.01,WeatherDisplay:10.37,2013-01-30 19:59:00,
2013-01-30 13:04:00,36.4,14.3,29.82,ESE,117,13.0,13.0,40,0.00,-RA,OVC,0.01,WeatherDisplay:10.37,2013-01-30 20:04:00,
2013-01-30 13:09:00,36.4,13.8,29.82,SE,133,10.4,10.4,39,0.00,-RA,OVC,0.01,WeatherDisplay:10.37,2013-01-30 20:09:00,
2013-01-30 13:14:00,36.6,14.5,29.82,SE,144,11.5,11.5,40,0.00,-RA,OVC,0.01,WeatherDisplay:10.37,2013-01-30 20:14:00,
2013-01-30 13:19:00,36.7,14.0,29.82,SSE,153,6.9,6.9,39,0.00,-RA,OVC,0.01,WeatherDisplay:10.37,2013-01-30 20:19:00,
2013-01-30 13:24:00,36.7,14.0,29.82,SSE,150,8.1,8.1,39,0.00,-RA,OVC,0.01,WeatherDisplay:10.37,2013-01-30 20:24:00,
2013-01-30 13:29:00,36.6,14.5,29.82,South,175,10.4,10.4,40,0.00,-RA,OVC,0.01,WeatherDisplay:10.37,2013-01-30 20:29:00,
2013-01-30 13:34:00,36.7,13.4,29.82,SSW,195,5.8,5.8,38,0.00,-RA,OVC,0.01,WeatherDisplay:10.37,2013-01-30 20:34:00,
2013-01-30 13:39:00,36.8,14.1,29.82,SSW,213,13.8,13.8,39,0.00,-RA,OVC,0.01,WeatherDisplay:10.37,2013-01-30 20:39:00,
2013-01-30 13:44:00,37.1,13.8,29.82,SE,132,4.6,4.6,38,0.00,-RA,OVC,0.01,WeatherDisplay:10.37,2013-01-30 20:44:00,
2013-01-30 13:49:00,37.3,14.0,29.82,SE,145,6.9,6.9,38,0.00,-RA,OVC,0.01,WeatherDisplay:10.37,2013-01-30 20:49:00,
2013-01-30 13:54:00,37.2,13.3,29.82,South,175,12.7,12.7,37,0.00,-RA,OVC,0.01,WeatherDisplay:10.37,2013-01-30 20:54:00,
2013-01-30 13:59:00,37.2,13.9,29.82,South,177,11.5,11.5,38,0.00,-RA,OVC,0.01,WeatherDisplay:10.37,2013-01-30 20:59:00,
2013-01-30 14:04:00,37.4,14.1,29.82,ESE,123,26.5,26.5,38,0.00,-RA,OVC,0.01,WeatherDisplay:10.37,2013-01-30 21:04:00,
2013-01-30 14:09:00,37.9,14.5,29.82,SSW,201,12.7,12.7,38,0.00,-RA,OVC,0.01,WeatherDisplay:10.37,2013-01-30 21:09:00,
2013-01-30 14:14:00,38.4,15.0,29.82,SSE,163,21.9,21.9,38,0.00,-RA,OVC,0.01,WeatherDisplay:10.37,2013-01-30 21:14:00,
2013-01-30 14:19:00,38.8,14.7,29.82,South,173,17.3,17.3,37,0.00,-RA,OVC,0.01,WeatherDisplay:10.37,2013-01-30 21:19:00,
2013-01-30 14:24:00,39.0,14.9,29.83,ESE,120,11.5,11.5,37,0.00,-RA,OVC,0.01,WeatherDisplay:10.37,2013-01-30 21:24:00,
2013-01-30 14:29:00,39.3,15.2,29.83,SW,215,20.0,20.0,37,0.00,-RA,OVC,0.01,WeatherDisplay:10.37,2013-01-30 21:29:00,
2013-01-30 14:34:00,39.1,15.0,29.83,SSE,150,16.1,16.1,37,0.00,-RA,OVC,0.01,WeatherDisplay:10.37,2013-01-30 21:34:00,
2013-01-30 14:39:00,39.1,15.0,29.83,South,185,19.6,19.6,37,0.00,-RA,OVC,0.01,WeatherDisplay:10.37,2013-01-30 21:39:00,
2013-01-30 14:44:00,39.0,15.5,29.83,South,174,10.4,10.4,38,0.00,-RA,OVC,0.01,WeatherDisplay:10.37,2013-01-30 21:44:00,
2013-01-30 14:49:00,38.6,15.1,29.83,SSW,200,15.0,15.0,38,0.00,-RA,OVC,0.01,WeatherDisplay:10.37,2013-01-30 21:49:00,
2013-01-30 14:54:00,38.7,14.6,29.83,SSW,207,19.6,19.6,37,0.00,-RA,OVC,0.01,WeatherDisplay:10.37,2013-01-30 21:54:00,
2013-01-30 14:59:00,39.1,16.2,29.83,South,180,12.7,12.7,39,0.00,-RA,OVC,0.01,WeatherDisplay:10.37,2013-01-30 21:59:00,
2013-01-30 15:04:00,39.2,15.7,29.83,SSW,205,15.0,15.0,38,0.00,-RA,OVC,0.01,WeatherDisplay:10.37,2013-01-30 22:04:00,
2013-01-30 15:09:00,39.1,15.6,29.83,South,175,12.7,12.7,38,0.00,-RA,OVC,0.01,WeatherDisplay:10.37,2013-01-30 22:09:00,
2013-01-30 15:14:00,39.1,15.6,29.83,South,190,11.5,11.5,38,0.00,-RA,OVC,0.01,WeatherDisplay:10.37,2013-01-30 22:14:00,
2013-01-30 15:19:00,39.1,15.6,29.83,SSE,167,15.0,15.0,38,0.01,-RA,OVC,0.02,WeatherDisplay:10.37,2013-01-30 22:19:00,
2013-01-30 15:24:00,39.1,15.6,29.83,South,171,11.5,11.5,38,0.01,-RA,OVC,0.02,WeatherDisplay:10.37,2013-01-30 22:24:00,
2013-01-30 15:29:00,39.1,15.6,29.83,SSE,163,10.4,10.4,38,0.01,-RA,OVC,0.02,WeatherDisplay:10.37,2013-01-30 22:29:00,
2013-01-30 15:34:00,39.1,16.2,29.82,South,171,6.9,6.9,39,0.01,-RA,OVC,0.02,WeatherDisplay:10.37,2013-01-30 22:34:00,
2013-01-30 15:39:00,38.8,15.3,29.82,SSW,212,15.0,15.0,38,0.01,-RA,OVC,0.02,WeatherDisplay:10.37,2013-01-30 22:39:00,
2013-01-30 15:44:00,38.5,15.7,29.82,South,171,9.2,9.2,39,0.01,-RA,OVC,0.02,WeatherDisplay:10.37,2013-01-30 22:44:00,
2013-01-30 15:49:00,38.1,15.3,29.82,South,186,10.4,10.4,39,0.01,-RA,OVC,0.02,WeatherDisplay:10.37,2013-01-30 22:49:00,
2013-01-30 15:54:00,37.9,15.7,29.82,WSW,246,11.5,11.5,40,0.01,-RA,OVC,0.02,WeatherDisplay:10.37,2013-01-30 22:54:00,
2013-01-30 15:59:00,37.6,14.8,29.82,South,191,11.5,11.5,39,0.01,-RA,OVC,0.02,WeatherDisplay:10.37,2013-01-30 22:59:00,
2013-01-30 16:04:00,37.5,15.3,29.82,South,188,9.2,9.2,40,0.01,-RA,OVC,0.02,WeatherDisplay:10.37,2013-01-30 23:04:00,
2013-01-30 16:09:00,37.3,15.2,29.82,South,184,19.6,19.6,40,0.01,-RA,OVC,0.02,WeatherDisplay:10.37,2013-01-30 23:09:00,
2013-01-30 16:14:00,37.2,15.6,29.82,South,180,5.8,5.8,41,0.01,-RA,OVC,0.02,WeatherDisplay:10.37,2013-01-30 23:14:00,
2013-01-30 16:19:00,37.2,15.6,29.82,SE,146,5.8,5.8,41,0.00,-RA,OVC,0.02,WeatherDisplay:10.37,2013-01-30 23:19:00,
2013-01-30 16:24:00,37.5,14.8,29.82,SSE,167,11.5,11.5,39,0.00,-RA,OVC,0.02,WeatherDisplay:10.37,2013-01-30 23:24:00,
2013-01-30 16:29:00,37.9,14.5,29.82,South,184,12.7,12.7,38,0.00,-RA,OVC,0.02,WeatherDisplay:10.37,2013-01-30 23:29:00,
2013-01-30 16:34:00,38.0,15.2,29.82,South,185,12.7,12.7,39,0.00,-RA,OVC,0.02,WeatherDisplay:10.37,2013-01-30 23:34:00,
2013-01-30 16:39:00,38.0,15.2,29.82,South,185,12.7,12.7,39,0.00,-RA,OVC,0.02,WeatherDisplay:10.37,2013-01-30 23:39:00,
2013-01-30 16:44:00,38.0,15.2,29.82,South,170,17.3,17.3,39,0.00,-RA,OVC,0.02,WeatherDisplay:10.37,2013-01-30 23:44:00,
2013-01-30 16:49:00,38.2,14.8,29.82,SSW,193,21.9,21.9,38,0.00,-RA,OVC,0.02,WeatherDisplay:10.37,2013-01-30 23:49:00,
2013-01-30 16:54:00,38.2,14.8,29.84,South,184,17.3,17.3,38,0.00,-RA,OVC,0.02,WeatherDisplay:10.37,2013-01-30 23:54:00,
2013-01-30 16:59:00,37.9,15.1,29.84,South,188,17.3,17.3,39,0.00,-RA,OVC,0.02,WeatherDisplay:10.37,2013-01-30 23:59:00,
2013-01-30 17:04:00,37.7,14.3,29.83,South,175,11.5,11.5,38,0.00,-RA,OVC,0.02,WeatherDisplay:10.37,2013-01-31 00:04:00,
2013-01-30 17:09:00,37.7,14.3,29.83,South,184,12.7,12.7,38,0.00,-RA,OVC,0.02,WeatherDisplay:10.37,2013-01-31 00:09:00,
2013-01-30 17:14:00,37.5,14.8,29.83,SSW,194,4.6,4.6,39,0.00,-RA,OVC,0.02,WeatherDisplay:10.37,2013-01-31 00:14:00,
2013-01-30 17:19:00,37.4,14.1,29.83,South,186,6.9,6.9,38,0.00,-RA,OVC,0.02,WeatherDisplay:10.37,2013-01-31 00:19:00,
2013-01-30 17:24:00,37.1,15.0,29.83,South,188,5.8,5.8,40,0.00,-RA,OVC,0.02,WeatherDisplay:10.37,2013-01-31 00:24:00,
2013-01-30 17:29:00,36.9,14.8,29.83,SSE,167,6.9,6.9,40,0.00,-RA,OVC,0.02,WeatherDisplay:10.37,2013-01-31 00:29:00,
2013-01-30 17:34:00,36.7,14.6,29.83,South,178,16.1,16.1,40,0.00,-RA,OVC,0.02,WeatherDisplay:10.37,2013-01-31 00:34:00,
2013-01-30 17:39:00,36.7,14.6,29.83,South,179,18.4,18.4,40,0.00,-RA,OVC,0.02,WeatherDisplay:10.37,2013-01-31 00:39:00,
2013-01-30 17:44:00,36.6,14.5,29.83,SSW,196,11.5,11.5,40,0.00,-RA,OVC,0.02,WeatherDisplay:10.37,2013-01-31 00:44:00,
2013-01-30 17:49:00,36.5,15.0,29.83,South,191,9.2,9.2,41,0.00,-RA,OVC,0.02,WeatherDisplay:10.37,2013-01-31 00:49:00,
2013-01-30 17:54:00,36.5,14.4,29.83,SSE,153,11.5,11.5,40,0.00,-RA,OVC,0.02,WeatherDisplay:10.37,2013-01-31 00:54:00,
2013-01-30 17:59:00,36.6,14.5,29.83,South,188,12.7,12.7,40,0.00,-RA,OVC,0.02,WeatherDisplay:10.37,2013-01-31 00:59:00,
2013-01-30 18:04:00,36.7,15.2,29.83,South,182,10.4,10.4,41,0.00,-RA,OVC,0.02,WeatherDisplay:10.37,2013-01-31 01:04:00,
2013-01-30 18:09:00,36.5,15.0,29.83,SSW,198,11.0,11.0,41,0.00,-RA,OVC,0.02,WeatherDisplay:10.37,2013-01-31 01:09:00,
2013-01-30 18:14:00,36.4,15.5,29.83,SW,235,6.9,6.9,42,0.00,-RA,OVC,0.02,WeatherDisplay:10.37,2013-01-31 01:14:00,
2013-01-30 18:19:00,36.1,15.2,29.83,South,183,11.5,11.5,42,0.00,-RA,OVC,0.02,WeatherDisplay:10.37,2013-01-31 01:19:00,
2013-01-30 18:24:00,36.1,14.6,29.83,South,190,10.4,10.4,41,0.00,-RA,OVC,0.02,WeatherDisplay:10.37,2013-01-31 01:24:00,
2013-01-30 18:29:00,36.3,14.8,29.83,SSE,154,10.4,10.4,41,0.00,-RA,OVC,0.02,WeatherDisplay:10.37,2013-01-31 01:29:00,
2013-01-30 18:34:00,36.5,15.0,29.83,South,173,9.2,9.2,41,0.00,-RA,OVC,0.02,WeatherDisplay:10.37,2013-01-31 01:34:00,
2013-01-30 18:39:00,36.8,14.7,29.83,South,189,11.5,11.5,40,0.00,-RA,OVC,0.02,WeatherDisplay:10.37,2013-01-31 01:39:00,
2013-01-30 18:44:00,36.8,14.7,29.86,South,181,12.7,12.7,40,0.00,-RA,OVC,0.02,WeatherDisplay:10.37,2013-01-31 01:44:00,
2013-01-30 18:49:00,36.9,14.2,29.86,SSW,199,12.7,12.7,39,0.00,-RA,OVC,0.02,WeatherDisplay:10.37,2013-01-31 01:49:00,
2013-01-30 18:54:00,37.0,14.9,29.86,South,186,13.8,13.8,40,0.00,-RA,OVC,0.02,WeatherDisplay:10.37,2013-01-31 01:54:00,
2013-01-30 18:59:00,37.0,14.9,29.86,South,183,10.4,10.4,40,0.00,-RA,OVC,0.02,WeatherDisplay:10.37,2013-01-31 01:59:00,
2013-01-30 19:04:00,37.1,15.0,29.86,South,180,15.0,15.0,40,0.00,-RA,OVC,0.02,WeatherDisplay:10.37,2013-01-31 02:04:00,
2013-01-30 19:09:00,36.9,14.8,29.86,SSE,153,4.6,4.6,40,0.00,-RA,OVC,0.02,WeatherDisplay:10.37,2013-01-31 02:09:00,
2013-01-30 19:14:00,36.8,15.3,29.86,SE,129,5.0,5.0,41,0.00,-RA,OVC,0.02,WeatherDisplay:10.37,2013-01-31 02:14:00,
2013-01-30 19:19:00,36.6,15.1,29.86,South,184,3.5,3.5,41,0.00,-RA,OVC,0.02,WeatherDisplay:10.37,2013-01-31 02:19:00,
2013-01-30 19:24:00,36.5,15.0,29.86,South,182,5.8,5.8,41,0.00,-RA,OVC,0.02,WeatherDisplay:10.37,2013-01-31 02:24:00,
2013-01-30 19:29:00,36.4,14.9,29.86,SSW,203,5.8,5.8,41,0.00,-RA,OVC,0.02,WeatherDisplay:10.37,2013-01-31 02:29:00,
2013-01-30 19:34:00,36.3,15.4,29.86,South,190,3.5,3.5,42,0.00,-RA,OVC,0.02,WeatherDisplay:10.37,2013-01-31 02:34:00,
2013-01-30 19:39:00,36.1,15.2,29.86,SE,128,2.3,2.3,42,0.00,-RA,OVC,0.02,WeatherDisplay:10.37,2013-01-31 02:39:00,
2013-01-30 19:44:00,35.8,15.5,29.87,SE,128,1.1,1.1,43,0.00,-RA,OVC,0.02,WeatherDisplay:10.37,2013-01-31 02:44:00,
2013-01-30 19:49:00,35.2,15.4,29.87,SE,128,2.3,0.0,44,0.00,-RA,OVC,0.02,WeatherDisplay:10.37,2013-01-31 02:49:00,
2013-01-30 19:54:00,34.6,15.4,29.87,SE,128,0.0,0.0,45,0.00,-RA,OVC,0.02,WeatherDisplay:10.37,2013-01-31 02:54:00,
2013-01-30 19:59:00,34.2,15.5,29.87,SE,128,1.1,0.0,46,0.00,-RA,OVC,0.02,WeatherDisplay:10.37,2013-01-31 02:59:00,
2013-01-30 20:04:00,33.5,15.4,29.87,SE,128,0.0,0.0,47,0.00,-RA,OVC,0.02,WeatherDisplay:10.37,2013-01-31 03:04:00,
2013-01-30 20:09:00,32.8,15.7,29.87,SE,128,0.0,0.0,49,0.00,-RA,OVC,0.02,WeatherDisplay:10.37,2013-01-31 03:09:00,
2013-01-30 20:14:00,32.3,15.7,29.87,SE,128,0.0,0.0,50,0.00,-RA,OVC,0.02,WeatherDisplay:10.37,2013-01-31 03:14:00,
2013-01-30 20:19:00,31.7,15.6,29.87,SE,128,1.1,1.1,51,0.00,-RA,OVC,0.02,WeatherDisplay:10.37,2013-01-31 03:19:00,
2013-01-30 20:24:00,31.2,15.6,29.87,SE,128,0.0,0.0,52,0.00,-RA,OVC,0.02,WeatherDisplay:10.37,2013-01-31 03:24:00,
2013-01-30 20:29:00,30.7,15.6,29.87,SE,128,0.0,0.0,53,0.00,-RA,OVC,0.02,WeatherDisplay:10.37,2013-01-31 03:29:00,
2013-01-30 20:34:00,30.3,15.6,29.87,SE,128,2.3,2.3,54,0.00,-RA,OVC,0.02,WeatherDisplay:10.37,2013-01-31 03:34:00,
2013-01-30 20:39:00,30.2,15.5,29.87,SE,128,0.0,0.0,54,0.00,-RA,OVC,0.02,WeatherDisplay:10.37,2013-01-31 03:39:00,
2013-01-30 20:44:00,30.1,15.4,29.87,ESE,109,2.3,2.3,54,0.00,-RA,OVC,0.02,WeatherDisplay:10.37,2013-01-31 03:44:00,
2013-01-30 20:49:00,30.2,15.1,29.87,ESE,109,2.0,2.0,53,0.00,-RA,OVC,0.02,WeatherDisplay:10.37,2013-01-31 03:49:00,
2013-01-30 20:54:00,30.6,15.0,29.87,ESE,109,0.0,0.0,52,0.00,-RA,OVC,0.02,WeatherDisplay:10.37,2013-01-31 03:54:00,
2013-01-30 20:59:00,30.9,15.3,29.87,ESE,109,3.5,3.5,52,0.00,-RA,OVC,0.02,WeatherDisplay:10.37,2013-01-31 03:59:00,
2013-01-30 21:04:00,31.0,15.4,29.87,ESE,107,3.5,3.5,52,0.00,-RA,OVC,0.02,WeatherDisplay:10.37,2013-01-31 04:04:00,
2013-01-30 21:09:00,31.2,15.6,29.87,ESE,107,0.0,0.0,52,0.00,-RA,OVC,0.02,WeatherDisplay:10.37,2013-01-31 04:09:00,
2013-01-30 21:14:00,31.0,15.4,29.87,SSE,155,3.5,3.5,52,0.00,-RA,OVC,0.02,WeatherDisplay:10.37,2013-01-31 04:14:00,
2013-01-30 21:19:00,30.8,15.2,29.87,SSE,149,0.0,0.0,52,0.00,-RA,OVC,0.02,WeatherDisplay:10.37,2013-01-31 04:19:00,
2013-01-30 21:24:00,30.8,14.8,29.87,SSE,149,1.0,0.0,51,0.00,-RA,OVC,0.02,WeatherDisplay:10.37,2013-01-31 04:24:00,
2013-01-30 21:29:00,30.9,15.3,29.87,SSE,148,3.5,3.5,52,0.00,-RA,OVC,0.02,WeatherDisplay:10.37,2013-01-31 04:29:00,
2013-01-30 21:34:00,31.1,15.1,29.87,SSE,148,2.3,2.3,51,0.00,-RA,OVC,0.02,WeatherDisplay:10.37,2013-01-31 04:34:00,
2013-01-30 21:39:00,31.6,15.1,29.87,NW,306,3.5,3.5,50,0.00,-RA,OVC,0.02,WeatherDisplay:10.37,2013-01-31 04:39:00,
2013-01-30 21:44:00,31.7,15.2,29.87,SSW,192,3.5,3.5,50,0.00,-RA,OVC,0.02,WeatherDisplay:10.37,2013-01-31 04:44:00,
2013-01-30 21:49:00,31.7,14.7,29.87,SSW,196,0.0,0.0,49,0.00,-RA,OVC,0.02,WeatherDisplay:10.37,2013-01-31 04:49:00,
2013-01-30 21:54:00,31.6,14.6,29.87,WNW,296,4.6,4.6,49,0.00,-RA,OVC,0.02,WeatherDisplay:10.37,2013-01-31 04:54:00,
2013-01-30 21:59:00,31.6,15.1,29.87,NW,319,6.0,6.0,50,0.00,-RA,OVC,0.02,WeatherDisplay:10.37,2013-01-31 04:59:00,
2013-01-30 22:01:00,31.6,15.1,29.87,South,182,8.1,8.1,50,0.00,-RA,OVC,0.02,WeatherDisplay:10.37,2013-01-31 05:01:00,
2013-01-30 22:03:00,31.6,15.5,29.87,SSE,162,5.8,5.8,51,0.00,-RA,OVC,0.02,WeatherDisplay:10.37,2013-01-31 05:03:00,
2013-01-30 22:08:00,31.3,15.7,29.87,ESE,118,3.5,4.6,52,0.00,-RA,OVC,0.02,WeatherDisplay:10.37,2013-01-31 05:08:00,
2013-01-30 22:13:00,31.5,15.4,29.87,ESE,123,2.3,3.0,51,0.00,-RA,OVC,0.02,WeatherDisplay:10.37,2013-01-31 05:13:00,
2013-01-30 22:18:00,33.4,15.8,29.87,North,360,3.5,5.2,48,0.00,-RA,OVC,0.02,WeatherDisplay:10.37,2013-01-31 05:18:00,
2013-01-30 22:23:00,32.9,15.3,29.87,South,179,0.0,0.0,48,0.00,-RA,OVC,0.02,WeatherDisplay:10.37,2013-01-31 05:23:00,
2013-01-30 22:28:00,32.6,15.1,29.87,ESE,123,3.5,3.5,48,0.00,-RA,OVC,0.02,WeatherDisplay:10.37,2013-01-31 05:28:00,
2013-01-30 22:33:00,33.5,15.4,29.87,ESE,107,6.0,6.0,47,0.00,-RA,OVC,0.02,WeatherDisplay:10.37,2013-01-31 05:33:00,
2013-01-30 22:38:00,34.8,15.6,29.87,ESE,108,3.5,3.5,45,0.00,-RA,OVC,0.02,WeatherDisplay:10.37,2013-01-31 05:38:00,
2013-01-30 22:43:00,36.1,15.2,29.87,South,178,6.9,6.9,42,0.00,-RA,OVC,0.02,WeatherDisplay:10.37,2013-01-31 05:43:00,
2013-01-30 22:48:00,37.3,15.2,29.87,ESE,120,5.8,5.8,40,0.00,-RA,OVC,0.02,WeatherDisplay:10.37,2013-01-31 05:48:00,
2013-01-30 22:53:00,38.1,15.3,29.87,SSE,157,6.9,6.9,39,0.00,-RA,OVC,0.02,WeatherDisplay:10.37,2013-01-31 05:53:00,
2013-01-30 22:58:00,38.2,15.4,29.87,East,90,6.9,6.9,39,0.00,-RA,OVC,0.02,WeatherDisplay:10.37,2013-01-31 05:58:00,
2013-01-30 23:03:00,38.6,15.1,29.87,SSE,147,10.4,10.4,38,0.00,-RA,OVC,0.02,WeatherDisplay:10.37,2013-01-31 06:03:00,
2013-01-30 23:08:00,39.1,15.0,29.87,ESE,107,9.2,9.2,37,0.00,-RA,OVC,0.02,WeatherDisplay:10.37,2013-01-31 06:08:00,
2013-01-30 23:13:00,39.1,14.4,29.87,SSE,159,6.9,6.9,36,0.00,-RA,OVC,0.02,WeatherDisplay:10.37,2013-01-31 06:13:00,
2013-01-30 23:18:00,38.9,14.8,29.87,ESE,121,17.3,17.3,37,0.00,-RA,OVC,0.02,WeatherDisplay:10.37,2013-01-31 06:18:00,
2013-01-30 23:23:00,38.8,15.3,29.87,South,184,4.6,4.6,38,0.00,-RA,OVC,0.02,WeatherDisplay:10.37,2013-01-31 06:23:00,
2013-01-30 23:28:00,38.4,14.4,29.87,SSE,168,6.9,6.9,37,0.00,-RA,OVC,0.02,WeatherDisplay:10.37,2013-01-31 06:28:00,
2013-01-30 23:33:00,38.4,14.4,29.87,South,169,6.9,6.9,37,0.00,-RA,OVC,0.02,WeatherDisplay:10.37,2013-01-31 06:33:00,
2013-01-30 23:38:00,38.7,14.6,29.87,SSW,192,3.5,3.5,37,0.00,-RA,OVC,0.02,WeatherDisplay:10.37,2013-01-31 06:38:00,
2013-01-30 23:43:00,38.4,15.6,29.87,WSW,254,3.5,3.5,39,0.00,-RA,OVC,0.02,WeatherDisplay:10.37,2013-01-31 06:43:00,
2013-01-30 23:48:00,37.2,15.1,29.87,WSW,254,3.5,3.5,40,0.00,-RA,OVC,0.02,WeatherDisplay:10.37,2013-01-31 06:48:00,
2013-01-30 23:53:00,35.9,14.5,29.89,West,278,3.5,3.5,41,0.00,-RA,OVC,0.02,WeatherDisplay:10.37,2013-01-31 06:53:00,
2013-01-30 23:58:00,34.3,14.6,29.89,South,190,0.0,0.0,44,0.00,-RA,OVC,0.02,WeatherDisplay:10.37,2013-01-31 06:58:00,